Weather in Skalat

Ukraine / Ternopil District     49°25′44″N   25°58′58″E
temp.,
°C
wind,
m/s
gust,
m/s
humid.,
%
clouds,
%
prec.,
mm/h
press.,
hPa
HPBL,
m
15 april, thu
thu1500:00+2nw5795100 0.6 1015318
03:00+2nw5696100 0.8 1016344
06:00+1nw5796100 1.6 1016323
09:00+1wnw4799100 3.6 1017259
12:00+2wnw5798100 0.1 1017331
15:00+2wnw5896100 0.1 1017432
18:00+3nw6890100 0.0 1017567
21:00+2wnw51096100 0.0 1017499
16 april, fri
fri1600:00+1wnw61097100 0.0 1017498
03:00+1wnw61096100 0.0 1016521
06:00+1wnw61094100 0.0 1016620
09:00+2wnw7108799 0.0 1016620
12:00+3wnw7984100 0.0 1017742
15:00+3wnw71085100 0.1 1018702
18:00+4wnw61184100 0.0 1018770
21:00+3wnw6138897 0.0 1019733
17 april, sat
sat1700:00+3w61495100 0.0 1019647
03:00+3w61295100 0.0 1020618
06:00+2w51090100 0.0 1020595
09:00+4wsw578493 0.0 1021563
12:00+8wsw236083 0.0 10201226
15:00+9se3354100 0.0 10201462
18:00+9se3558100 0.0 1020318
21:00+6e3674100 0.0 1021101
18 april, sun
sun1800:00+7e497297 0.0 1021314
03:00+5ese4107686 0.0 1021271
06:00+4e3882100 0.0 1021158
09:00+8ese586798 0.0 1021487
12:00+12ese675277 0.0 10211697
15:00+13se674763 0.1 10201919
18:00+13sse575097 0.0 10191682
21:00+10s2466100 0.0 1020108
19 april, mon
mon1900:00+8s1578100 0.1 1021372
03:00+7ese2489100 0.8 1021275
06:00+7e2693100 1.4 1020373
09:00+7e4893100 3.3 1020917
12:00+7se6985100 1.1 10201108
15:00+8se6981100 2.9 10201068
18:00+8se4887100 0.1 1019719
21:00+8e51089100 0.2 1017466